This is the latest recevied weather packets stored in our database for station/object OK1FET-5. If no packets are shown the sender has not sent any weather packets the latest 10 day(s).
| Time | Temp. | Humidity | Pressure | Rain* | Wind** | Luminosity | Snow |
|---|---|---|---|---|---|---|---|
| 1777625495 | 23.89° C | 34% | 1030 hPa | - | - | - | - |
| 1777625199 | 23.89° C | 32% | 1030.1 hPa | - | - | - | - |
| 1777624903 | 23.33° C | 35% | 1030.1 hPa | - | - | - | - |
| 1777624608 | 22.78° C | 37% | 1030.2 hPa | - | - | - | - |
| 1777624312 | 23.33° C | 37% | 1030.2 hPa | - | - | - | - |
| 1777624017 | 22.22° C | 38% | 1030.2 hPa | - | - | - | - |
| 1777623722 | 21.67° C | 38% | 1030.2 hPa | - | - | - | - |
| 1777623427 | 21.11° C | 39% | 1030.3 hPa | - | - | - | - |
| 1777623132 | 20.56° C | 40% | 1030.3 hPa | - | - | - | - |
| 1777622836 | 20.56° C | 38% | 1030.3 hPa | - | - | - | - |
| 1777621951 | 20.56° C | 39% | 1030.4 hPa | - | - | - | - |
| 1777621656 | 20° C | 40% | 1030.5 hPa | - | - | - | - |
| 1777621066 | 19.44° C | 40% | 1030.4 hPa | - | - | - | - |
| 1777620771 | 19.44° C | 40% | 1030.3 hPa | - | - | - | - |
| 1777620476 | 18.89° C | 40% | 1030.3 hPa | - | - | - | - |
| 1777620181 | 18.89° C | 40% | 1030.4 hPa | - | - | - | - |
| 1777619886 | 18.33° C | 40% | 1030.4 hPa | - | - | - | - |
| 1777619591 | 18.33° C | 39% | 1030.4 hPa | - | - | - | - |
| 1777619296 | 18.89° C | 39% | 1030.4 hPa | - | - | - | - |
| 1777619001 | 18.89° C | 37% | 1030.4 hPa | - | - | - | - |
| 1777618706 | 18.33° C | 37% | 1030.3 hPa | - | - | - | - |
| 1777618412 | 17.78° C | 38% | 1030.3 hPa | - | - | - | - |
| 1777618117 | 16.67° C | 38% | 1030.3 hPa | - | - | - | - |
| 1777617823 | 16.11° C | 39% | 1030.4 hPa | - | - | - | - |
| 1777617528 | 16.11° C | 39% | 1030.4 hPa | - | - | - | - |
* Rain since midnight (hover to see other rain measurements)
** Current wind speed in m/s (hover to see current wind gust speed)